Lid_Strength_Index
-1 -1 -2 -2 -2 -2 -2 -2 -2 -2 -2 -2 -2 -2 -2 -2 -2 -2 -2 -2 -2 -2 -2 -2 -2 -1 0
-0 -0 -1 -2 -2 -2 -2 -1 -0 -1 -1 -1 -1 -2 -2 -2 -2 -2 -2 -2 -2 -2 -2 -1 -1 -1 -0
1 1 0 -0 -1 -1 -0 1 1 0 -0 -0 0 -1 -2 -2 -2 -2 -1 -2 -1 -1 -1 -1 -1 -0 -0
0 1 -0 -1 -0 -0 0 1 0 1 0 -0 1 -0 -1 -1 -2 -2 -1 0 1 2 1 0 0 0 0
1 0 0 -1 -0 0 1 1 1 0 1 1 1 -0 1 1 0 1 2 3 3 3 3 3 1 2 2
1 1 -0 -0 -0 0 1 1 0 0 1 2 1 -0 -0 1 2 2 2 3 3 3 3 4 4 3 3
1 1 1 1 -0 -0 0 1 -0 0 1 2 1 -0 2 2 3 3 3 3 4 4 4 5 5 5 4
1 1 1 1 0 -0 1 1 0 0 1 1 2 2 2 1 2 3 3 4 4 4 5 5 6 6 6
1 1 1 1 -0 -0 0 0 0 0 0 1 1 1 1 0 1 2 4 4 5 5 5 5 6 6 6
1 1 1 1 0 -0 0 1 1 0 0 1 1 1 1 1 1 2 4 5 6 6 7 7 7 8 7
0 0 -0 0 1 1 0 1 1 1 0 0 1 0 1 2 2 2 5 6 7 7 7 8 9 9 10
1 1 0 1 1 2 2 1 1 1 0 1 1 -0 -0 1 2 3 5 6 7 7 7 9 9 10 11
2 2 2 2 3 3 2 2 1 1 1 0 0 0 0 1 2 3 5 6 8 9 9 10 10 10 10
2 2 2 2 2 2 3 2 2 2 1 1 0 0 0 1 1 3 4 7 8 8 10 10 12 10 10
2 2 3 3 3 3 3 3 3 2 1 1 1 0 0 0 1 2 3 5 8 8 9 9 12 12 12
2 2 3 3 3 2 2 3 3 2 2 1 1 1 1 0 1 1 2 4 7 8 9 8 8 9 11